Retour au catalogue

STARLINK-32220

ActifCommunicationsVLEO
NORAD 60370·PAYLOAD·🇺🇸 United States

Lancé Aug 4, 2024 depuis Vandenberg Space Force Base

Loading…

Prochains Passages (prochaines 24 heures)

TLE

FraisSource: CelesTrak SupGP

Époque: Sep 14, 2026, 21:17 UTC

1 60370C 24138R   26257.88729167 -.00018778  00000+0 -55488-3 0  2576
2 60370  53.1595 150.2092 0001200  87.9538 247.5392 15.34394833    14

Suivez STARLINK-32220 en temps réel avec AllMySat

Download on the App Store